When you browse on this site, cookies collect data to enhance your experience and personalize the content and advertising you see.
Visit our Privacy Policy to learn more. By continuing to use the site, you agree to this use of cookies and data.
  • In Spain
  • List of Countries
  • For 7 days
  • Water Temperature
  • Satellite Maps
  • Weather Map
  • Weather Widgets
  • user-avatar
    Login

    Hourly Weather Salzburg

    Today, 18 July, Thursday

    Time Temperature Precipitation Wind Pressure Humidity
    00:00 +8°C° 0.1 mm 1 mps 625 mmHg 93%
    01:00 +8°C° 0 mm 1 mps 625 mmHg 93%
    02:00 +8°C° 0 mm 1 mps 624 mmHg 92%
    03:00 +8°C° 0 mm 1 mps 624 mmHg 92%
    04:00 +7°C° 0 mm 1 mps 624 mmHg 92%
    05:00 +9°C° 0 mm 1 mps 625 mmHg 91%
    06:00 +10°C° 0 mm 1 mps 625 mmHg 89%
    07:00 +11°C° 0 mm 0 mps 626 mmHg 88%
    08:00 +13°C° 0.2 mm 1 mps 626 mmHg 80%
    09:00 +15°C° 0.2 mm 1 mps 627 mmHg 72%
    10:00 +18°C° 0.2 mm 1 mps 628 mmHg 63%
    11:00 +18°C° 0.3 mm 1 mps 628 mmHg 61%
    12:00 +18°C° 0.3 mm 1 mps 628 mmHg 59%
    13:00 +17°C° 0.3 mm 2 mps 628 mmHg 57%
    14:00 +17°C° 0.2 mm 2 mps 628 mmHg 57%
    15:00 +17°C° 0.2 mm 2 mps 628 mmHg 58%
    16:00 +18°C° 0.2 mm 1 mps 628 mmHg 58%
    17:00 +15°C° 0.3 mm 1 mps 628 mmHg 68%
    18:00 +14°C° 0.3 mm 1 mps 627 mmHg 77%
    19:00 +12°C° 0.3 mm 0 mps 627 mmHg 86%
    20:00 +11°C° 0 mm 1 mps 627 mmHg 88%
    21:00 +10°C° 0 mm 1 mps 626 mmHg 89%
    22:00 +9°C° 0 mm 1 mps 626 mmHg 91%
    23:00 +8°C° 0 mm 1 mps 626 mmHg 91%

    Tomorrow, 19 July, Friday

    Time Temperature Precipitation Wind Pressure Humidity
    00:00 +8°C° 0 mm 1 mps 626 mmHg 91%
    01:00 +8°C° 0 mm 1 mps 626 mmHg 92%
    02:00 +8°C° 0 mm 1 mps 626 mmHg 91%
    03:00 +8°C° 0 mm 1 mps 626 mmHg 90%
    04:00 +8°C° 0 mm 1 mps 626 mmHg 90%
    05:00 +9°C° 0 mm 1 mps 627 mmHg 87%
    06:00 +10°C° 0 mm 1 mps 628 mmHg 84%
    07:00 +12°C° 0 mm 1 mps 628 mmHg 82%
    08:00 +14°C° 0 mm 1 mps 629 mmHg 70%
    09:00 +18°C° 0 mm 1 mps 630 mmHg 59%
    10:00 +19°C° 0 mm 0 mps 631 mmHg 47%
    11:00 +21°C° 0.1 mm 1 mps 631 mmHg 46%
    12:00 +22°C° 0.1 mm 1 mps 631 mmHg 44%
    13:00 +22°C° 0.1 mm 1 mps 631 mmHg 43%
    14:00 +21°C° 0.3 mm 1 mps 631 mmHg 53%
    15:00 +20°C° 0.3 mm 1 mps 630 mmHg 63%
    16:00 +17°C° 0.3 mm 2 mps 630 mmHg 73%
    17:00 +16°C° 0.6 mm 1 mps 629 mmHg 79%
    18:00 +15°C° 0.6 mm 1 mps 629 mmHg 85%
    19:00 +13°C° 0.6 mm 0 mps 629 mmHg 91%
    20:00 +13°C° 0.1 mm 1 mps 629 mmHg 91%
    21:00 +12°C° 0.1 mm 1 mps 629 mmHg 91%
    22:00 +11°C° 0.1 mm 1 mps 629 mmHg 92%
    23:00 +11°C° 0 mm 1 mps 628 mmHg 92%

    Day after tomorrow, 20 July, Saturday

    Time Temperature Precipitation Wind Pressure Humidity
    00:00 +10°C° 0 mm 1 mps 628 mmHg 92%
    01:00 +10°C° 0 mm 1 mps 628 mmHg 92%
    02:00 +10°C° 0 mm 1 mps 628 mmHg 92%
    03:00 +9°C° 0 mm 1 mps 628 mmHg 92%
    04:00 +9°C° 0 mm 1 mps 628 mmHg 91%
    05:00 +11°C° 0 mm 1 mps 629 mmHg 89%
    06:00 +12°C° 0 mm 1 mps 629 mmHg 87%
    07:00 +14°C° 0 mm 1 mps 630 mmHg 85%
    08:00 +18°C° 0 mm 1 mps 631 mmHg 73%
    09:00 +19°C° 0 mm 0 mps 632 mmHg 60%
    10:00 +22°C° 0 mm 0 mps 633 mmHg 48%
    11:00 +24°C° 0 mm 1 mps 633 mmHg 45%
    12:00 +24°C° 0 mm 1 mps 633 mmHg 42%
    13:00 +25°C° 0 mm 1 mps 633 mmHg 39%
    14:00 +24°C° 0.2 mm 1 mps 633 mmHg 48%
    15:00 +22°C° 0.2 mm 1 mps 632 mmHg 57%
    16:00 +21°C° 0.2 mm 1 mps 631 mmHg 66%
    17:00 +20°C° 0.5 mm 1 mps 631 mmHg 71%
    18:00 +18°C° 0.5 mm 1 mps 631 mmHg 77%
    19:00 +15°C° 0.5 mm 0 mps 631 mmHg 83%
    20:00 +15°C° 0.3 mm 1 mps 631 mmHg 85%
    21:00 +14°C° 0.3 mm 1 mps 631 mmHg 86%
    22:00 +13°C° 0.3 mm 1 mps 631 mmHg 88%
    23:00 +12°C° 0 mm 1 mps 630 mmHg 88%

    21 July, Sunday

    Time Temperature Precipitation Wind Pressure Humidity
    00:00 +12°C° 0 mm 2 mps 630 mmHg 88%
    01:00 +12°C° 0 mm 2 mps 630 mmHg 88%
    02:00 +12°C° 0 mm 1 mps 630 mmHg 86%
    03:00 +12°C° 0 mm 1 mps 630 mmHg 85%
    04:00 +11°C° 0 mm 1 mps 630 mmHg 84%
    05:00 +13°C° 0 mm 1 mps 631 mmHg 81%
    06:00 +14°C° 0 mm 1 mps 632 mmHg 78%
    07:00 +15°C° 0 mm 0 mps 633 mmHg 75%
    08:00 +19°C° 0.1 mm 1 mps 633 mmHg 69%
    09:00 +20°C° 0.1 mm 1 mps 634 mmHg 63%
    10:00 +21°C° 0.1 mm 2 mps 635 mmHg 57%
    11:00 +21°C° 0.5 mm 2 mps 635 mmHg 59%
    12:00 +21°C° 0.5 mm 2 mps 635 mmHg 61%
    13:00 +21°C° 0.5 mm 2 mps 635 mmHg 64%
    14:00 +20°C° 1 mm 2 mps 634 mmHg 71%
    15:00 +20°C° 1 mm 1 mps 634 mmHg 78%
    16:00 +19°C° 1 mm 1 mps 634 mmHg 86%
    17:00 +19°C° 0.8 mm 1 mps 634 mmHg 88%
    18:00 +16°C° 0.8 mm 0 mps 634 mmHg 91%
    19:00 +15°C° 0.8 mm 0 mps 634 mmHg 93%
    20:00 +14°C° 0.2 mm 0 mps 634 mmHg 94%
    21:00 +13°C° 0.2 mm 0 mps 633 mmHg 94%
    22:00 +12°C° 0.2 mm 1 mps 633 mmHg 94%
    23:00 +12°C° 0 mm 1 mps 633 mmHg 94%

    22 July, Monday

    Time Temperature Precipitation Wind Pressure Humidity
    00:00 +12°C° 0 mm 1 mps 633 mmHg 94%
    01:00 +11°C° 0 mm 1 mps 633 mmHg 94%
    02:00 +11°C° 0 mm 1 mps 632 mmHg 93%
    03:00 +11°C° 0 mm 1 mps 632 mmHg 93%
    04:00 +11°C° 0 mm 1 mps 632 mmHg 93%
    05:00 +12°C° 0 mm 1 mps 633 mmHg 91%
    06:00 +13°C° 0 mm 0 mps 633 mmHg 88%
    07:00 +14°C° 0 mm 0 mps 634 mmHg 86%
    08:00 +16°C° 0 mm 0 mps 635 mmHg 76%
    09:00 +21°C° 0 mm 1 mps 636 mmHg 65%
    10:00 +23°C° 0 mm 1 mps 636 mmHg 55%
    11:00 +23°C° 0.2 mm 1 mps 636 mmHg 54%
    12:00 +23°C° 0.2 mm 2 mps 636 mmHg 54%
    13:00 +24°C° 0.2 mm 2 mps 636 mmHg 54%
    14:00 +23°C° 0.2 mm 2 mps 636 mmHg 56%
    15:00 +23°C° 0.2 mm 2 mps 635 mmHg 59%
    16:00 +23°C° 0.2 mm 2 mps 635 mmHg 61%
    17:00 +21°C° 0.3 mm 1 mps 635 mmHg 71%
    18:00 +19°C° 0.3 mm 1 mps 634 mmHg 80%
    19:00 +18°C° 0.3 mm 1 mps 634 mmHg 89%
    20:00 +16°C° 0 mm 1 mps 633 mmHg 91%
    21:00 +14°C° 0 mm 1 mps 633 mmHg 92%
    22:00 +12°C° 0 mm 0 mps 633 mmHg 93%
    23:00 +13°C° 0 mm 1 mps 633 mmHg 93%

    23 July, Tuesday

    Time Temperature Precipitation Wind Pressure Humidity
    00:00 +12°C° 0 mm 1 mps 632 mmHg 93%
    01:00 +12°C° 0 mm 1 mps 632 mmHg 93%
    02:00 +12°C° 0 mm 1 mps 632 mmHg 93%
    03:00 +12°C° 0 mm 1 mps 632 mmHg 93%
    04:00 +11°C° 0 mm 1 mps 632 mmHg 94%
    05:00 +12°C° 0 mm 0 mps 632 mmHg 92%
    06:00 +13°C° 0 mm 0 mps 633 mmHg 90%
    07:00 +14°C° 0 mm 0 mps 633 mmHg 89%
    08:00 +17°C° 0 mm 0 mps 634 mmHg 77%
    09:00 +21°C° 0 mm 1 mps 634 mmHg 66%
    10:00 +23°C° 0 mm 1 mps 635 mmHg 55%
    11:00 +24°C° 0 mm 1 mps 635 mmHg 50%
    12:00 +25°C° 0 mm 1 mps 635 mmHg 45%
    13:00 +25°C° 0 mm 2 mps 635 mmHg 40%
    14:00 +25°C° 0 mm 2 mps 635 mmHg 42%
    15:00 +24°C° 0 mm 2 mps 634 mmHg 45%
    16:00 +24°C° 0 mm 2 mps 634 mmHg 47%
    17:00 +21°C° 0 mm 2 mps 633 mmHg 58%
    18:00 +20°C° 0 mm 1 mps 633 mmHg 68%
    19:00 +18°C° 0 mm 1 mps 632 mmHg 78%
    20:00 +15°C° 0 mm 1 mps 632 mmHg 81%
    21:00 +14°C° 0 mm 1 mps 631 mmHg 83%
    22:00 +12°C° 0 mm 1 mps 631 mmHg 86%
    23:00 +12°C° 0 mm 1 mps 631 mmHg 85%
    Show more